UAL286 KORD-KCMH

Flight info

Callsign UAL286
Flight time 0h 47m
Altitude 31000
Route MOBLE ADIME SEWTO FWA BRYEN DUBLN1
Aircraft A320/M-SDE3FGHIRWY/LB1

Departure

Time 2026-05-09 00:39
Airport Chicago O'Hare International Airport (KORD)

Arrival

Time 2026-05-09 01:26
Airport John Glenn Columbus International Airport (KCMH)
Time Latitude Longitude Altitude Speed Heading
2026-05-09 00:03 41.97716 -87.90772 668 ft 0 kts 99°
2026-05-09 00:15 41.97386 -87.90544 669 ft 0 kts 270°
2026-05-09 00:18 41.97386 -87.90538 669 ft 4 kts 268°
2026-05-09 00:19 41.97392 -87.90506 665 ft 4 kts 225°
2026-05-09 00:19 41.97414 -87.90491 667 ft 3 kts 181°
2026-05-09 00:19 41.97435 -87.90491 668 ft 2 kts 180°
2026-05-09 00:19 41.97436 -87.90491 668 ft 0 kts 180°
2026-05-09 00:22 41.97429 -87.90491 668 ft 2 kts 180°
2026-05-09 00:22 41.97406 -87.90491 666 ft 4 kts 180°
2026-05-09 00:22 41.97367 -87.90491 668 ft 7 kts 180°
2026-05-09 00:22 41.97319 -87.90491 669 ft 4 kts 179°
2026-05-09 00:23 41.97285 -87.90491 669 ft 6 kts 179°
2026-05-09 00:23 41.97277 -87.90491 669 ft 0 kts 180°
2026-05-09 00:23 41.97269 -87.90491 669 ft 3 kts 180°
2026-05-09 00:24 41.97237 -87.90494 669 ft 6 kts 191°
2026-05-09 00:24 41.97182 -87.90517 669 ft 9 kts 186°
2026-05-09 00:24 41.97131 -87.90494 669 ft 9 kts 161°
2026-05-09 00:24 41.97065 -87.90491 668 ft 10 kts 202°
2026-05-09 00:25 41.97042 -87.90587 668 ft 12 kts 270°
2026-05-09 00:25 41.97042 -87.90712 668 ft 14 kts 269°
2026-05-09 00:25 41.97041 -87.90856 668 ft 16 kts 269°
2026-05-09 00:25 41.97041 -87.91015 669 ft 18 kts 270°
2026-05-09 00:26 41.97041 -87.91190 669 ft 20 kts 270°
2026-05-09 00:26 41.97040 -87.91384 669 ft 22 kts 269°
2026-05-09 00:26 41.97040 -87.91573 670 ft 19 kts 269°
2026-05-09 00:26 41.97039 -87.91738 669 ft 17 kts 270°
2026-05-09 00:27 41.97039 -87.91891 669 ft 14 kts 270°
2026-05-09 00:27 41.97038 -87.91971 669 ft 2 kts 270°
2026-05-09 00:27 41.97038 -87.91974 669 ft 1 kts 270°
2026-05-09 00:27 41.97038 -87.91976 669 ft 0 kts 270°
2026-05-09 00:28 41.97038 -87.91979 669 ft 1 kts 270°
2026-05-09 00:28 41.97038 -87.92015 669 ft 7 kts 270°
2026-05-09 00:29 41.97039 -87.92116 669 ft 13 kts 270°
2026-05-09 00:29 41.97038 -87.92248 668 ft 15 kts 269°
2026-05-09 00:29 41.97039 -87.92395 668 ft 13 kts 270°
2026-05-09 00:29 41.97038 -87.92508 668 ft 10 kts 265°
2026-05-09 00:30 41.97004 -87.92535 667 ft 2 kts 183°
2026-05-09 00:30 41.97000 -87.92535 668 ft 0 kts 181°
2026-05-09 00:38 41.96990 -87.92536 668 ft 5 kts 182°
2026-05-09 00:38 41.96925 -87.92536 667 ft 12 kts 174°
2026-05-09 00:38 41.96900 -87.92430 666 ft 21 kts 88°
2026-05-09 00:38 41.96900 -87.91814 670 ft 109 kts 90°
2026-05-09 00:39 41.96901 -87.90477 699 ft 171 kts 89°
2026-05-09 00:39 41.96906 -87.88818 1425 ft 179 kts 95°
2026-05-09 00:39 41.96693 -87.87168 2387 ft 180 kts 104°
2026-05-09 00:39 41.96382 -87.85493 2783 ft 197 kts 105°
2026-05-09 00:40 41.96009 -87.83605 3046 ft 220 kts 106°
2026-05-09 00:40 41.95603 -87.81520 3366 ft 241 kts 102°
2026-05-09 00:40 41.95464 -87.79164 3740 ft 266 kts 91°
2026-05-09 00:41 41.95405 -87.73988 5321 ft 283 kts 90°
2026-05-09 00:41 41.95392 -87.71321 6206 ft 287 kts 90°
2026-05-09 00:41 41.95377 -87.68621 7058 ft 291 kts 90°
2026-05-09 00:41 41.95360 -87.65877 7895 ft 296 kts 90°
2026-05-09 00:42 41.95334 -87.63085 8693 ft 302 kts 90°
2026-05-09 00:42 41.95304 -87.60241 9509 ft 307 kts 89°
2026-05-09 00:42 41.95269 -87.57349 10202 ft 314 kts 89°
2026-05-09 00:42 41.95234 -87.54400 10933 ft 317 kts 89°
2026-05-09 00:43 41.95196 -87.51426 11671 ft 320 kts 89°
2026-05-09 00:43 41.95153 -87.48421 12399 ft 325 kts 90°
2026-05-09 00:43 41.95114 -87.45315 12745 ft 343 kts 89°
2026-05-09 00:43 41.95078 -87.42000 12901 ft 365 kts 89°
2026-05-09 00:44 41.95033 -87.38522 13390 ft 375 kts 90°
2026-05-09 00:44 41.94982 -87.34991 13992 ft 381 kts 90°
2026-05-09 00:44 41.94926 -87.31453 14575 ft 385 kts 90°
2026-05-09 00:44 41.94869 -87.27829 15146 ft 390 kts 90°
2026-05-09 00:45 41.94816 -87.24167 15716 ft 394 kts 90°
2026-05-09 00:45 41.94766 -87.20467 16282 ft 399 kts 90°
2026-05-09 00:45 41.94715 -87.16713 16849 ft 403 kts 90°
2026-05-09 00:45 41.94660 -87.12928 17425 ft 408 kts 90°
2026-05-09 00:46 41.94600 -87.09099 18003 ft 412 kts 90°
2026-05-09 00:46 41.94544 -87.05217 18519 ft 417 kts 90°
2026-05-09 00:46 41.94548 -87.01302 19029 ft 421 kts 88°
2026-05-09 00:46 41.94609 -86.97352 19540 ft 426 kts 87°
2026-05-09 00:47 41.94699 -86.93349 20089 ft 431 kts 87°
2026-05-09 00:47 41.94796 -86.89308 20585 ft 435 kts 87°
2026-05-09 00:47 41.94886 -86.85215 21064 ft 440 kts 87°
2026-05-09 00:47 41.94963 -86.81136 21548 ft 445 kts 88°
2026-05-09 00:48 41.95027 -86.76961 22038 ft 449 kts 88°
2026-05-09 00:48 41.95081 -86.72746 22513 ft 454 kts 88°
2026-05-09 00:48 41.95131 -86.68481 22983 ft 458 kts 88°
2026-05-09 00:48 41.95180 -86.64182 23436 ft 463 kts 88°
2026-05-09 00:49 41.95229 -86.59843 23808 ft 467 kts 88°
2026-05-09 00:49 41.95277 -86.55466 24170 ft 471 kts 89°
2026-05-09 00:49 41.95325 -86.51003 24509 ft 476 kts 89°
2026-05-09 00:49 41.95373 -86.46558 24857 ft 481 kts 89°
2026-05-09 00:50 41.95423 -86.42047 25205 ft 485 kts 89°
2026-05-09 00:50 41.95473 -86.37486 25552 ft 489 kts 89°
2026-05-09 00:50 41.95523 -86.32904 25897 ft 493 kts 89°
2026-05-09 00:50 41.95572 -86.28278 26234 ft 497 kts 90°
2026-05-09 00:51 41.95407 -86.23640 26567 ft 499 kts 99°
2026-05-09 00:51 41.94760 -86.19047 26888 ft 499 kts 109°
2026-05-09 00:51 41.94076 -86.16107 27101 ft 499 kts 115°
2026-05-09 00:51 41.92375 -86.10339 27484 ft 504 kts 117°
2026-05-09 00:52 41.91078 -86.05961 27813 ft 506 kts 117°
2026-05-09 00:52 41.89786 -86.01573 28233 ft 507 kts 117°
2026-05-09 00:52 41.88487 -85.97147 28582 ft 510 kts 117°
2026-05-09 00:52 41.87185 -85.92717 28922 ft 513 kts 117°
2026-05-09 00:53 41.85868 -85.88259 29258 ft 516 kts 117°
2026-05-09 00:53 41.84970 -85.85231 29495 ft 517 kts 117°
2026-05-09 00:53 41.83631 -85.80741 29808 ft 520 kts 118°
2026-05-09 00:53 41.82283 -85.76222 30091 ft 523 kts 118°
2026-05-09 00:54 41.80932 -85.71692 30370 ft 525 kts 118°
2026-05-09 00:54 41.79462 -85.67214 30647 ft 520 kts 127°
2026-05-09 00:54 41.77449 -85.63355 30815 ft 503 kts 141°
2026-05-09 00:54 41.74922 -85.60259 30848 ft 473 kts 155°
2026-05-09 00:55 41.69628 -85.55313 30845 ft 465 kts 156°
2026-05-09 00:55 41.64320 -85.50400 30849 ft 464 kts 155°
2026-05-09 00:56 41.59012 -85.45468 30854 ft 464 kts 155°
2026-05-09 00:56 41.53714 -85.40550 30862 ft 464 kts 155°
2026-05-09 00:57 41.48405 -85.35633 30867 ft 465 kts 155°
2026-05-09 00:57 41.43091 -85.30722 30828 ft 465 kts 155°
2026-05-09 00:58 41.37764 -85.25797 30832 ft 467 kts 155°
2026-05-09 00:58 41.32421 -85.20871 30832 ft 467 kts 155°
2026-05-09 00:59 41.27107 -85.15987 30836 ft 467 kts 155°
2026-05-09 00:59 41.21737 -85.11066 30887 ft 474 kts 155°
2026-05-09 01:00 41.19003 -85.08574 30169 ft 475 kts 155°
2026-05-09 01:00 41.16275 -85.06081 28903 ft 474 kts 154°
2026-05-09 01:00 41.13605 -85.03628 28583 ft 461 kts 154°
2026-05-09 01:00 41.10977 -85.01215 27999 ft 458 kts 154°
2026-05-09 01:01 41.08364 -84.98828 27454 ft 454 kts 154°
2026-05-09 01:01 41.05769 -84.96464 26907 ft 451 kts 154°
2026-05-09 01:01 41.03197 -84.94123 26381 ft 447 kts 154°
2026-05-09 01:01 41.00640 -84.91800 25836 ft 444 kts 154°
2026-05-09 01:02 40.98105 -84.89499 25361 ft 440 kts 154°
2026-05-09 01:02 40.95589 -84.87215 24861 ft 437 kts 154°
2026-05-09 01:02 40.93088 -84.84949 24375 ft 434 kts 154°
2026-05-09 01:02 40.90592 -84.82693 23884 ft 432 kts 154°
2026-05-09 01:03 40.88157 -84.80361 23391 ft 436 kts 147°
2026-05-09 01:03 40.86019 -84.77475 22944 ft 442 kts 134°
2026-05-09 01:03 40.84342 -84.74099 22850 ft 437 kts 122°
2026-05-09 01:03 40.83107 -84.70410 22884 ft 444 kts 116°
2026-05-09 01:04 40.81933 -84.66628 22875 ft 446 kts 116°
2026-05-09 01:04 40.80752 -84.62830 22879 ft 448 kts 116°
2026-05-09 01:04 40.79587 -84.59081 22878 ft 448 kts 117°
2026-05-09 01:04 40.78398 -84.55274 22610 ft 449 kts 117°
2026-05-09 01:05 40.77194 -84.51432 21609 ft 452 kts 116°
2026-05-09 01:05 40.76016 -84.47659 21127 ft 441 kts 116°
2026-05-09 01:05 40.73715 -84.40272 20390 ft 430 kts 115°
2026-05-09 01:06 40.72583 -84.36638 20049 ft 427 kts 115°
2026-05-09 01:06 40.71454 -84.33024 19805 ft 426 kts 115°
2026-05-09 01:06 40.70325 -84.29429 19551 ft 424 kts 115°
2026-05-09 01:06 40.69193 -84.25841 19308 ft 421 kts 115°
2026-05-09 01:07 40.68069 -84.22286 19064 ft 419 kts 115°
2026-05-09 01:07 40.66955 -84.18750 18818 ft 417 kts 115°
2026-05-09 01:07 40.65846 -84.15224 18573 ft 415 kts 115°
2026-05-09 01:07 40.64745 -84.11719 18334 ft 413 kts 115°
2026-05-09 01:08 40.63645 -84.08237 18122 ft 411 kts 115°
2026-05-09 01:08 40.62543 -84.04764 17923 ft 410 kts 115°
2026-05-09 01:08 40.61447 -84.01309 17687 ft 408 kts 115°
2026-05-09 01:08 40.60357 -83.97874 17446 ft 406 kts 115°
2026-05-09 01:09 40.59269 -83.94452 17216 ft 404 kts 115°
2026-05-09 01:09 40.58184 -83.91049 16982 ft 402 kts 115°
2026-05-09 01:09 40.57107 -83.87670 16743 ft 400 kts 115°
2026-05-09 01:09 40.56033 -83.84302 16539 ft 398 kts 115°
2026-05-09 01:10 40.54964 -83.80950 16299 ft 397 kts 115°
2026-05-09 01:10 40.53898 -83.77615 16061 ft 395 kts 115°
2026-05-09 01:10 40.52847 -83.74338 15849 ft 393 kts 115°
2026-05-09 01:10 40.51786 -83.71029 15612 ft 392 kts 115°
2026-05-09 01:11 40.50731 -83.67740 15387 ft 390 kts 115°
2026-05-09 01:11 40.49679 -83.64452 15163 ft 389 kts 115°
2026-05-09 01:11 40.48634 -83.61183 14932 ft 387 kts 115°
2026-05-09 01:11 40.47584 -83.57932 14705 ft 385 kts 115°
2026-05-09 01:12 40.46538 -83.54709 14463 ft 384 kts 115°
2026-05-09 01:12 40.45495 -83.51490 14217 ft 382 kts 115°
2026-05-09 01:12 40.44401 -83.48318 14023 ft 378 kts 121°
2026-05-09 01:12 40.42965 -83.45459 13917 ft 376 kts 129°
2026-05-09 01:13 40.41405 -83.42671 13292 ft 378 kts 129°
2026-05-09 01:13 40.39869 -83.39925 12903 ft 371 kts 130°
2026-05-09 01:13 40.38347 -83.37204 12461 ft 367 kts 130°
2026-05-09 01:13 40.36843 -83.34518 12080 ft 363 kts 130°
2026-05-09 01:14 40.35346 -83.31851 11706 ft 361 kts 130°
2026-05-09 01:14 40.33866 -83.29215 11329 ft 359 kts 130°
2026-05-09 01:14 40.32391 -83.26583 10952 ft 356 kts 130°
2026-05-09 01:14 40.30780 -83.24160 10585 ft 348 kts 142°
2026-05-09 01:15 40.28946 -83.22194 10306 ft 342 kts 147°
2026-05-09 01:15 40.27073 -83.20258 10183 ft 343 kts 148°
2026-05-09 01:15 40.25232 -83.18349 10024 ft 326 kts 148°
2026-05-09 01:15 40.23510 -83.16547 9746 ft 310 kts 148°
2026-05-09 01:16 40.21851 -83.14818 9461 ft 304 kts 148°
2026-05-09 01:16 40.20287 -83.12962 9182 ft 305 kts 137°
2026-05-09 01:16 40.19044 -83.10706 8901 ft 306 kts 128°
2026-05-09 01:17 40.16767 -83.06057 8331 ft 301 kts 129°
2026-05-09 01:17 40.15616 -83.03787 8056 ft 298 kts 130°
2026-05-09 01:17 40.14449 -83.01565 7783 ft 295 kts 130°
2026-05-09 01:17 40.13281 -82.99368 7513 ft 293 kts 131°
2026-05-09 01:18 40.12120 -82.97190 7245 ft 291 kts 131°
2026-05-09 01:18 40.10966 -82.95032 6985 ft 289 kts 131°
2026-05-09 01:18 40.09821 -82.92851 6520 ft 292 kts 125°
2026-05-09 01:18 40.09076 -82.90458 6380 ft 279 kts 109°
2026-05-09 01:19 40.08831 -82.88003 6251 ft 265 kts 98°
2026-05-09 01:19 40.08712 -82.85649 6108 ft 256 kts 98°
2026-05-09 01:19 40.08596 -82.83343 5855 ft 253 kts 98°
2026-05-09 01:19 40.08482 -82.81050 5572 ft 252 kts 98°
2026-05-09 01:20 40.08367 -82.78766 5296 ft 251 kts 98°
2026-05-09 01:20 40.08252 -82.76498 5022 ft 250 kts 97°
2026-05-09 01:20 40.08141 -82.74235 4778 ft 248 kts 97°
2026-05-09 01:20 40.08033 -82.71997 4501 ft 247 kts 97°
2026-05-09 01:21 40.07923 -82.69766 4222 ft 245 kts 97°
2026-05-09 01:21 40.07709 -82.67580 3942 ft 239 kts 114°
2026-05-09 01:21 40.06822 -82.65855 3655 ft 225 kts 147°
2026-05-09 01:21 40.05454 -82.65002 3343 ft 216 kts 169°
2026-05-09 01:22 40.04001 -82.64549 3015 ft 211 kts 179°
2026-05-09 01:22 40.02599 -82.64902 3005 ft 207 kts 214°
2026-05-09 01:22 40.01612 -82.66220 3011 ft 205 kts 238°
2026-05-09 01:22 40.00905 -82.67831 3008 ft 204 kts 242°
2026-05-09 01:23 40.00245 -82.69474 3008 ft 205 kts 242°
2026-05-09 01:23 39.99593 -82.71127 3008 ft 205 kts 245°
2026-05-09 01:23 39.99295 -82.72886 2970 ft 195 kts 269°
2026-05-09 01:23 39.99387 -82.74627 2791 ft 190 kts 272°
2026-05-09 01:24 39.99491 -82.76329 2590 ft 188 kts 272°
2026-05-09 01:24 39.99590 -82.78001 2328 ft 186 kts 272°
2026-05-09 01:24 39.99687 -82.79688 2077 ft 185 kts 273°
2026-05-09 01:24 39.99782 -82.81321 1835 ft 172 kts 273°
2026-05-09 01:25 39.99866 -82.82774 1629 ft 152 kts 273°
2026-05-09 01:25 39.99942 -82.84102 1426 ft 143 kts 274°
2026-05-09 01:25 40.00014 -82.85378 1243 ft 140 kts 274°
2026-05-09 01:25 40.00087 -82.86638 1057 ft 139 kts 274°
2026-05-09 01:26 40.00159 -82.87890 861 ft 138 kts 275°
2026-05-09 01:26 40.00222 -82.89009 822 ft 90 kts 273°
2026-05-09 01:26 40.00250 -82.89519 817 ft 41 kts 273°
2026-05-09 01:26 40.00241 -82.89746 818 ft 17 kts 226°
2026-05-09 01:27 40.00167 -82.89711 820 ft 13 kts 103°
2026-05-09 01:27 40.00161 -82.89626 819 ft 4 kts 95°
2026-05-09 01:27 40.00159 -82.89590 817 ft 3 kts 94°
2026-05-09 01:27 40.00158 -82.89570 819 ft 2 kts 94°
2026-05-09 01:28 40.00156 -82.89539 819 ft 5 kts 95°
2026-05-09 01:28 40.00150 -82.89438 818 ft 17 kts 95°
2026-05-09 01:28 40.00138 -82.89233 820 ft 28 kts 94°
2026-05-09 01:28 40.00124 -82.88996 822 ft 24 kts 94°
2026-05-09 01:29 40.00112 -82.88793 824 ft 20 kts 94°
2026-05-09 01:29 40.00095 -82.88657 824 ft 11 kts 131°
2026-05-09 01:29 40.00030 -82.88610 821 ft 13 kts 121°
2026-05-09 01:29 40.00020 -82.88501 821 ft 12 kts 93°
2026-05-09 01:30 40.00012 -82.88394 821 ft 12 kts 98°
2026-05-09 01:30 39.99994 -82.88293 819 ft 11 kts 108°
2026-05-09 01:30 39.99952 -82.88221 821 ft 10 kts 154°
2026-05-09 01:30 39.99885 -82.88206 821 ft 10 kts 177°
2026-05-09 01:31 39.99841 -82.88214 821 ft 2 kts 189°
2026-05-09 01:31 39.99836 -82.88215 821 ft 0 kts 186°